Погода в Стальном Коне

Россия / Орловская область     53°02′17″N   36°07′38″E
темп.,
°C
ветер,
м/с
пор.,
м/с
влажн.,
%
обл.,
%
осадки,
мм/ч
давл.,
гПа
погр.,
м
5 декабря, вс
вс500:00−3ююз37949 0.0 1014189
03:00−3ююз3794100 0.0 1015206
06:00−3ююз3591100 0.0 1015167
09:00−3ююз3690100 0.0 1016244
12:00−2ююз3585100 0.0 1016281
15:00−2ю23905 0.0 101682
18:00−4ю23945 0.0 101755
21:00−4ю3591100 0.0 101892
6 декабря, пн
пн600:00−4ююв2488100 0.0 101980
03:00−4ююв2585100 0.0 1019104
06:00−3юв3683100 0.0 1019158
09:00−3юв3882100 0.0 1020204
12:00−2юв4974100 0.0 1020364
15:00−2юв4877100 0.0 1019310
18:00−3юв5108397 0.0 1019242
21:00−2юв51192100 0.1 1018356
7 декабря, вт
вт700:00−1юв61397100 1.5 1017405
03:000юв71496100 5.2 1014418
06:00+1ююв71497100 2.3 1013475
09:00+1ююв61299100 2.4 1012331
12:00+2ююв511100100 0.1 1011287
15:00+2ююв411100100 0.4 1010238
18:00+3ююв514100100 0.8 1009329
21:00+5ю715100100 1.3 1009365
8 декабря, ср
ср800:00+4ю61598100 2.3 1009364
03:00+3ю41198100 4.7 1009264
06:00+2ю3798100 2.7 1010139
09:00+2ююв3495100 3.0 101163
12:00+3юв2394100 0.0 101258
15:00+2в3495100 0.0 101167
18:00+1в3696100 0.0 1012116
21:00+1в3796100 0.0 1012154
9 декабря, чт
чт900:00+1всв3697100 0.0 1012130
03:00+1в3698100 0.0 1012185
06:00+1в3697100 0.0 1011167
09:00+1вюв379798 0.0 1012161
12:00+2вюв3796100 0.0 1012207
15:00+3юв3597100 0.1 1012103
18:00+3юв3698100 2.2 1013127
21:00+3юв3497100 2.3 101385